When you browse on this site, cookies collect data to enhance your experience and personalize the content and advertising you see.
Visit our Privacy Policy to learn more. By continuing to use the site, you agree to this use of cookies and data.
  • In Hungary
  • List of Countries
  • For 7 days
  • Water Temperature
  • Weather Map
  • News
  • Weather Widgets
  • user-avatar
    Login

    Hourly Weather Nakhodka

    Today, 15 November, Friday

    Time Temperature Precipitation Wind Pressure Humidity
    00:00 -7°C° 0 mm 3 mps 760 mmHg 31%
    01:00 -7°C° 0.1 mm 3 mps 759 mmHg 34%
    02:00 -6°C° 0.1 mm 2 mps 758 mmHg 38%
    03:00 -5°C° 0.1 mm 2 mps 757 mmHg 41%
    04:00 -5°C° 0.3 mm 2 mps 757 mmHg 52%
    05:00 -6°C° 0.3 mm 2 mps 756 mmHg 62%
    06:00 -7°C° 0.3 mm 3 mps 756 mmHg 72%
    07:00 -6°C° 0 mm 3 mps 756 mmHg 68%
    08:00 -7°C° 0 mm 4 mps 757 mmHg 63%
    09:00 -6°C° 0 mm 5 mps 757 mmHg 59%
    10:00 -6°C° 0 mm 6 mps 757 mmHg 55%
    11:00 -5°C° 0 mm 6 mps 757 mmHg 52%
    12:00 -6°C° 0 mm 7 mps 757 mmHg 48%
    13:00 -6°C° 0 mm 7 mps 757 mmHg 42%
    14:00 -6°C° 0 mm 7 mps 757 mmHg 37%
    15:00 -5°C° 0 mm 6 mps 757 mmHg 32%
    16:00 -6°C° 0 mm 6 mps 758 mmHg 32%
    17:00 -6°C° 0 mm 6 mps 758 mmHg 32%
    18:00 -8°C° 0 mm 6 mps 759 mmHg 32%
    19:00 -8°C° 0 mm 6 mps 759 mmHg 33%
    20:00 -8°C° 0 mm 6 mps 759 mmHg 33%
    21:00 -8°C° 0 mm 7 mps 759 mmHg 33%
    22:00 -8°C° 0 mm 7 mps 760 mmHg 34%
    23:00 -9°C° 0 mm 6 mps 760 mmHg 35%

    Tomorrow, 16 November, Saturday

    Time Temperature Precipitation Wind Pressure Humidity
    00:00 -9°C° 0 mm 6 mps 760 mmHg 35%
    01:00 -9°C° 0 mm 6 mps 760 mmHg 36%
    02:00 -9°C° 0 mm 7 mps 760 mmHg 36%
    03:00 -9°C° 0 mm 7 mps 760 mmHg 37%
    04:00 -9°C° 0 mm 7 mps 760 mmHg 37%
    05:00 -9°C° 0 mm 7 mps 760 mmHg 37%
    06:00 -9°C° 0 mm 7 mps 760 mmHg 37%
    07:00 -8°C° 0 mm 7 mps 760 mmHg 35%
    08:00 -7°C° 0 mm 7 mps 760 mmHg 32%
    09:00 -7°C° 0 mm 8 mps 760 mmHg 29%
    10:00 -6°C° 0 mm 8 mps 760 mmHg 28%
    11:00 -5°C° 0 mm 8 mps 760 mmHg 26%
    12:00 -4°C° 0 mm 8 mps 760 mmHg 25%
    13:00 -4°C° 0 mm 8 mps 760 mmHg 25%
    14:00 -4°C° 0 mm 8 mps 760 mmHg 24%
    15:00 -4°C° 0 mm 8 mps 759 mmHg 24%
    16:00 -3°C° 0 mm 7 mps 760 mmHg 27%
    17:00 -4°C° 0 mm 7 mps 761 mmHg 30%
    18:00 -5°C° 0 mm 6 mps 761 mmHg 33%
    19:00 -6°C° 0 mm 6 mps 762 mmHg 33%
    20:00 -6°C° 0 mm 6 mps 762 mmHg 33%
    21:00 -8°C° 0 mm 6 mps 762 mmHg 33%
    22:00 -8°C° 0 mm 6 mps 763 mmHg 33%
    23:00 -8°C° 0 mm 7 mps 763 mmHg 33%

    Day after tomorrow, 17 November, Sunday

    Time Temperature Precipitation Wind Pressure Humidity
    00:00 -9°C° 0 mm 7 mps 764 mmHg 34%
    01:00 -9°C° 0 mm 7 mps 764 mmHg 35%
    02:00 -11°C° 0 mm 7 mps 765 mmHg 37%
    03:00 -11°C° 0 mm 7 mps 765 mmHg 38%
    04:00 -11°C° 0 mm 7 mps 765 mmHg 38%
    05:00 -10°C° 0 mm 6 mps 766 mmHg 39%
    06:00 -10°C° 0 mm 5 mps 766 mmHg 39%
    07:00 -10°C° 0 mm 5 mps 766 mmHg 38%
    08:00 -8°C° 0 mm 5 mps 767 mmHg 37%
    09:00 -8°C° 0 mm 4 mps 767 mmHg 36%
    10:00 -5°C° 0 mm 4 mps 767 mmHg 33%
    11:00 -2°C° 0 mm 3 mps 767 mmHg 30%
    12:00 -1°C° 0 mm 2 mps 766 mmHg 28%
    13:00 +2°C° 0 mm 1 mps 766 mmHg 28%
    14:00 +2°C° 0 mm 1 mps 766 mmHg 29%
    15:00 +2°C° 0 mm 0 mps 765 mmHg 29%
    16:00 +2°C° 0 mm 1 mps 765 mmHg 33%
    17:00 +1°C° 0 mm 1 mps 765 mmHg 36%
    18:00 0°C° 0 mm 1 mps 765 mmHg 39%
    19:00 0°C° 0 mm 1 mps 764 mmHg 39%
    20:00 +1°C° 0 mm 1 mps 764 mmHg 39%
    21:00 +1°C° 0 mm 1 mps 763 mmHg 38%
    22:00 -1°C° 0.1 mm 3 mps 762 mmHg 40%
    23:00 -2°C° 0.1 mm 4 mps 761 mmHg 42%

    18 November, Monday

    Time Temperature Precipitation Wind Pressure Humidity
    00:00 -1°C° 0.1 mm 5 mps 759 mmHg 43%
    01:00 -2°C° 0.2 mm 6 mps 757 mmHg 55%
    02:00 -4°C° 0.2 mm 8 mps 755 mmHg 66%
    03:00 -4°C° 0.2 mm 9 mps 753 mmHg 77%
    04:00 -3°C° 3.4 mm 11 mps 751 mmHg 83%
    05:00 -2°C° 3.4 mm 12 mps 748 mmHg 90%
    06:00 -1°C° 3.4 mm 14 mps 746 mmHg 97%
    07:00 0°C° 5.6 mm 12 mps 745 mmHg 97%
    08:00 +1°C° 5.6 mm 9 mps 745 mmHg 97%
    09:00 +3°C° 5.6 mm 7 mps 744 mmHg 97%
    10:00 +2°C° 0 mm 8 mps 745 mmHg 89%
    11:00 +1°C° 0 mm 10 mps 746 mmHg 80%
    12:00 +1°C° 0 mm 11 mps 747 mmHg 72%
    13:00 -1°C° 0 mm 11 mps 748 mmHg 70%
    14:00 -3°C° 0 mm 10 mps 749 mmHg 69%
    15:00 -4°C° 0 mm 10 mps 750 mmHg 67%
    16:00 -6°C° 0 mm 9 mps 751 mmHg 68%
    17:00 -9°C° 0 mm 9 mps 752 mmHg 68%
    18:00 -11°C° 0 mm 8 mps 753 mmHg 69%
    19:00 -11°C° 0 mm 8 mps 753 mmHg 69%
    20:00 -11°C° 0 mm 9 mps 754 mmHg 70%
    21:00 -11°C° 0 mm 9 mps 754 mmHg 70%
    22:00 -12°C° 0 mm 9 mps 754 mmHg 68%
    23:00 -12°C° 0 mm 8 mps 754 mmHg 66%

    19 November, Tuesday

    Time Temperature Precipitation Wind Pressure Humidity
    00:00 -13°C° 0 mm 8 mps 754 mmHg 63%
    01:00 -13°C° 0 mm 8 mps 754 mmHg 64%
    02:00 -13°C° 0 mm 7 mps 754 mmHg 64%
    03:00 -13°C° 0 mm 7 mps 754 mmHg 65%
    04:00 -13°C° 0 mm 7 mps 754 mmHg 65%
    05:00 -13°C° 0 mm 7 mps 754 mmHg 65%
    06:00 -13°C° 0 mm 7 mps 754 mmHg 65%
    07:00 -13°C° 0 mm 8 mps 754 mmHg 63%
    08:00 -12°C° 0 mm 8 mps 754 mmHg 61%
    09:00 -12°C° 0 mm 9 mps 755 mmHg 58%
    10:00 -12°C° 0 mm 9 mps 755 mmHg 57%
    11:00 -12°C° 0 mm 9 mps 754 mmHg 56%
    12:00 -11°C° 0 mm 9 mps 754 mmHg 54%
    13:00 -11°C° 0 mm 9 mps 754 mmHg 57%
    14:00 -11°C° 0 mm 9 mps 754 mmHg 59%
    15:00 -12°C° 0 mm 9 mps 754 mmHg 62%
    16:00 -12°C° 0 mm 9 mps 755 mmHg 60%
    17:00 -12°C° 0 mm 9 mps 755 mmHg 59%
    18:00 -14°C° 0 mm 9 mps 756 mmHg 58%
    19:00 -14°C° 0 mm 9 mps 757 mmHg 60%
    20:00 -14°C° 0 mm 9 mps 757 mmHg 62%
    21:00 -14°C° 0 mm 9 mps 758 mmHg 64%
    22:00 -14°C° 0 mm 9 mps 758 mmHg 64%
    23:00 -14°C° 0 mm 9 mps 759 mmHg 64%

    20 November, Wednesday

    Time Temperature Precipitation Wind Pressure Humidity
    00:00 -13°C° 0 mm 8 mps 759 mmHg 64%
    01:00 -15°C° 0 mm 8 mps 759 mmHg 65%
    02:00 -15°C° 0 mm 8 mps 760 mmHg 67%
    03:00 -14°C° 0 mm 7 mps 760 mmHg 69%
    04:00 -14°C° 0 mm 7 mps 761 mmHg 69%
    05:00 -14°C° 0 mm 7 mps 761 mmHg 69%
    06:00 -14°C° 0 mm 7 mps 762 mmHg 70%
    07:00 -13°C° 0 mm 7 mps 762 mmHg 68%
    08:00 -12°C° 0 mm 6 mps 763 mmHg 65%
    09:00 -11°C° 0 mm 6 mps 763 mmHg 63%
    10:00 -10°C° 0 mm 6 mps 763 mmHg 61%
    11:00 -9°C° 0 mm 6 mps 763 mmHg 59%
    12:00 -7°C° 0 mm 5 mps 763 mmHg 56%
    13:00 -7°C° 0 mm 5 mps 763 mmHg 56%
    14:00 -7°C° 0 mm 5 mps 763 mmHg 55%
    15:00 -6°C° 0 mm 5 mps 763 mmHg 55%
    16:00 -7°C° 0 mm 4 mps 764 mmHg 60%
    17:00 -8°C° 0 mm 4 mps 764 mmHg 65%
    18:00 -8°C° 0 mm 3 mps 764 mmHg 70%
    19:00 -8°C° 0 mm 3 mps 765 mmHg 71%
    20:00 -8°C° 0 mm 3 mps 765 mmHg 72%
    21:00 -8°C° 0 mm 3 mps 765 mmHg 73%
    22:00 -8°C° 0 mm 3 mps 765 mmHg 74%
    23:00 -8°C° 0 mm 3 mps 765 mmHg 74%
    Show more